This is the latest recevied weather packets stored in our database for station/object JF2ZGN-13. If no packets are shown the sender has not sent any weather packets the latest 10 day(s).
| Time | Temp. | Humidity | Pressure | Rain* | Wind** | Luminosity | Snow |
|---|---|---|---|---|---|---|---|
| 1787668604 | 22.22° C | 71% | 910 hPa | 0 mm | - | - | - |
| 1787668004 | 21.67° C | 73% | 910 hPa | 0 mm | - | - | - |
| 1787667403 | 21.67° C | 73% | 910 hPa | 0 mm | - | - | - |
| 1787666803 | 21.67° C | 74% | 909.9 hPa | 0 mm | - | - | - |
| 1787666203 | 21.11° C | 74% | 909.7 hPa | 0 mm | - | - | - |
| 1787665603 | 21.11° C | 74% | 909.7 hPa | 0 mm | - | - | - |
| 1787665001 | 21.11° C | 74% | 909.7 hPa | 0 mm | - | - | - |
| 1787664401 | 21.11° C | 73% | 909.4 hPa | 0 mm | - | - | - |
| 1787663801 | 21.11° C | 74% | 909.5 hPa | 0 mm | - | - | - |
| 1787663200 | 21.67° C | 71% | 909.9 hPa | 0 mm | - | - | - |
| 1787662600 | 22.22° C | 65% | 909.8 hPa | 0 mm | - | - | - |
| 1787661999 | 22.78° C | 64% | 909.8 hPa | 0 mm | - | - | - |
| 1787661400 | 22.78° C | 65% | 909.8 hPa | 0 mm | - | - | - |
| 1787660798 | 23.33° C | 64% | 909.6 hPa | 0 mm | - | - | - |
| 1787660198 | 22.78° C | 66% | 909.8 hPa | 0 mm | - | - | - |
| 1787659598 | 22.78° C | 68% | 909.9 hPa | 0 mm | - | - | - |
| 1787658998 | 22.78° C | 69% | 909.8 hPa | 0 mm | - | - | - |
| 1787658397 | 23.33° C | 66% | 909.9 hPa | 0 mm | - | - | - |
| 1787657796 | 23.33° C | 66% | 909.8 hPa | 0 mm | - | - | - |
| 1787657195 | 23.33° C | 64% | 909.8 hPa | 0 mm | - | - | - |
| 1787656595 | 23.33° C | 64% | 909.8 hPa | 0 mm | - | - | - |
| 1787655994 | 23.33° C | 66% | 909.7 hPa | 0 mm | - | - | - |
| 1787655395 | 22.78° C | 68% | 909.7 hPa | 0 mm | - | - | - |
| 1787654794 | 23.33° C | 67% | 909.7 hPa | 0 mm | - | - | - |
| 1787654193 | 23.33° C | 68% | 909.6 hPa | 0 mm | - | - | - |
* Rain since midnight (hover to see other rain measurements)
** Current wind speed in m/s (hover to see current wind gust speed)